Caldwell, NJ

1:01 PM EDT on March 27, 2017 (GMT -0400)
Essex County

Weather History for KCDW - October, 2012

Change the Weather History Date:

Thursday, October 11, 2012

  Actual Average Record
Temperature  
Mean Temperature 52 °F -  
Max Temperature 61 °F 64 °F 84 °F (1958)
Min Temperature 45 °F 41 °F 26 °F (1979)
Degree Days  
Heating Degree Days 12    
Growing Degree Days 2 (Base 50)    
Moisture  
Dew Point 33 °F    
Average Humidity 52    
Maximum Humidity 76    
Minimum Humidity 32    
Precipitation  
Precipitation 0.00 in - - ()
Sea Level Pressure  
Sea Level Pressure 30.16 in    
Wind  
Wind Speed 5 mph (WNW)    
Max Wind Speed 14 mph    
Max Gust Speed 21 mph    
Visibility 10 miles    
Events      
Averages and records for this station are not official NWS values.
T = Trace of Precipitation, MM = Missing Value Source: NWS Daily Summary

Daily Weather History Graph

Daily Weather History Graph

Search for Another Location

Airport or City:

Trip Planner

Search our weather history database for the weather conditions in past years. The results will help you decide how hot, cold, wet, or windy it might be!

Date:

Astronomy

Oct. 11, 2012 Rise Set
Actual Time 7:04 AM EDT 6:22 PM EDT
Civil Twilight 6:37 AM EDT 6:49 PM EDT
Nautical Twilight 6:05 AM EDT 7:21 PM EDT
Astronomical Twilight 5:33 AM EDT 7:53 PM EDT
Moon 2:38 AM EDT (10/11) 3:58 PM EDT (10/11)
Length of Visible Light 12h 12m
Length of Day
11h 17m
Waning Crescent, 18% of the Moon is Illuminated
Oct 11
Waning Crescent
Oct 15
New
Oct 21
First Quarter
Oct 29
Full
Nov 6
Last Quarter

Hourly Weather History & Observations

Time (EDT) Temp. Windchill Dew Point Humidity Pressure Visibility Wind Dir Wind Speed Gust Speed Precip Events Conditions
12:53 AM 51.1 °F - 37.0 °F 59% 30.00 in 10.0 mi Calm Calm - N/A   Clear
1:53 AM 51.1 °F - 37.0 °F 59% 30.03 in 10.0 mi WNW 10.4 mph 16.1 mph N/A   Clear
2:53 AM 48.0 °F - 37.9 °F 68% 30.04 in 10.0 mi Calm Calm - N/A   Clear
3:53 AM 48.9 °F - 37.0 °F 64% 30.07 in 10.0 mi WNW 8.1 mph - N/A   Clear
4:53 AM 48.0 °F - 32.0 °F 54% 30.10 in 10.0 mi WNW 6.9 mph - N/A   Partly Cloudy
5:53 AM 45.0 °F - 37.9 °F 76% 30.14 in 10.0 mi Calm Calm - N/A   Clear
6:53 AM 45.0 °F 41.2 °F 36.0 °F 71% 30.16 in 10.0 mi WNW 6.9 mph - N/A   Clear
7:53 AM 46.0 °F 42.5 °F 33.1 °F 61% 30.19 in 10.0 mi WNW 6.9 mph - N/A   Clear
8:53 AM 48.0 °F - 32.0 °F 54% 30.21 in 10.0 mi West 13.8 mph 20.7 mph N/A   Clear
9:53 AM 51.1 °F - 30.9 °F 46% 30.23 in 10.0 mi NNW 11.5 mph 17.3 mph N/A   Clear
10:53 AM 53.1 °F - 30.9 °F 43% 30.22 in 10.0 mi NW 13.8 mph 19.6 mph N/A   Clear
11:53 AM 55.0 °F - 30.9 °F 40% 30.22 in 10.0 mi WNW 8.1 mph - N/A   Clear
12:53 PM 55.9 °F - 30.0 °F 37% 30.20 in 10.0 mi West 8.1 mph - N/A   Clear
1:53 PM 57.9 °F - 30.0 °F 35% 30.18 in 10.0 mi WSW 5.8 mph - N/A   Clear
2:53 PM 59.0 °F - 28.9 °F 32% 30.18 in 10.0 mi WNW 9.2 mph - N/A   Clear
3:53 PM 59.0 °F - 28.9 °F 32% 30.18 in 10.0 mi Variable 3.5 mph - N/A   Clear
4:53 PM 60.1 °F - 30.9 °F 33% 30.17 in 10.0 mi Variable 4.6 mph - N/A   Clear
6:53 PM 54.0 °F - 32.0 °F 43% 30.17 in 10.0 mi Calm Calm - N/A   Clear
7:53 PM 52.0 °F - 34.0 °F 50% 30.17 in 10.0 mi Calm Calm - N/A   Clear
8:53 PM 48.9 °F - 35.1 °F 59% 30.19 in 10.0 mi Calm Calm - N/A   Clear
9:53 PM 48.0 °F - 36.0 °F 63% 30.19 in 10.0 mi Calm Calm - N/A   Clear
10:53 PM 46.9 °F - 36.0 °F 66% 30.18 in 10.0 mi Calm Calm - N/A   Clear